Regional Weather Roundup
Issued by NWS

Home | Current Version | Previous Version | Text Only | Print | Product List | Glossary Off
Versions: 1 2 3 4 5 6 7 8 9 10 11 12 13 14 15 16 17 18 19 20 21 22 23 24 25 26 27 28 29 30 31 32 33 34 35 36 37 38 39 40 41 42 43 44 45 46 47 48 49 50

000
ASUS43 KDMX 282307
RWRIA

WEATHER ROUNDUP FOR IOWA
NATIONAL WEATHER SERVICE DES MOINES IA
600 PM CDT SAT MAR 28 2015

NOTE: "FAIR" INDICATES FEW OR NO CLOUDS BELOW 12,000 FEET WITH NO
SIGNIFICANT WEATHER AND/OR OBSTRUCTIONS TO VISIBILITY.

* - THESE STATIONS ARE NOT NWS STATIONS...THUS NOT UNDER NWS
QUALITY CONTROL.  THEY ALSO DO NOT REPORT WEATHER SUCH
AS PRECIPITATION OR FOG.

IAZ001>003-012>014-020>022-031>034-043>046-290000-
   NORTHWEST IOWA

CITY           SKY/WX    TMP DP  RH WIND       PRES   REMARKS
CARROLL *      SUNNY     50  27  40 S16       30.07S
CHEROKEE *     SUNNY     50  27  40 S14G24    30.02F
DENISON *      SUNNY     50  27  40 S16       30.03F
LE MARS *      SUNNY     54  28  37 S20G28    29.98F
ORANGE CITY *  SUNNY     54  23  30 S15G22    29.98F
SHELDON *      SUNNY     50  28  43 S22       29.98F
SIOUX CITY     SUNNY     55  27  34 S15G26    30.00F
SPENCER        SUNNY     49  28  44 S23G30    30.02F
STORM LAKE *   SUNNY     48  27  43 S22       30.03F
$$

IAZ055>058-069>071-079>083-090>094-290000-
   SOUTHWEST IOWA

CITY           SKY/WX    TMP DP  RH WIND       PRES   REMARKS
ATLANTIC *     SUNNY     50  28  43 S17G23    30.07F
AUDUBON *      SUNNY     50  25  37 S15G21    30.08F
CLARINDA *     SUNNY     52  30  43 S14       30.11S
COUNCIL BLFS * SUNNY     52  32  46 S17G24    30.05F
CRESTON *      SUNNY     46  27  46 SE14G22   30.11S
HARLAN  *      SUNNY     50  28  43 S12G25    30.10S
LAMONI         SUNNY     47  25  42 SE15G21   30.13S
RED OAK *      SUNNY     52  30  43 S17G24    30.08F
SHENANDOAH *   SUNNY     52  32  46 SE17      30.08F
$$

IAZ047>049-059>061-072>074-084-290000-
   CENTRAL IOWA

CITY           SKY/WX    TMP DP  RH WIND       PRES   REMARKS
AMES           SUNNY     47  17  30 S14       30.12F
ANKENY *       SUNNY     48  18  29 S14G23    30.13S
CHARITON *     SUNNY     48  21  34 SE13G20   30.14S
DES MOINES     SUNNY     49  17  28 S15       30.13F
GRINNELL*      SUNNY     45  14  29 SE14      30.16F
KNOXVILLE *    SUNNY     46  18  31 S13       30.14S
MARSHALLTOWN   SUNNY     45  15  30 S15       30.14F
PELLA *        SUNNY     46  23  39 S12       30.16F
PERRY *          N/A     50  23  34 S17       30.10F
$$

IAZ004>006-015-016-023>025-035-036-290000-
   NORTH CENTRAL IOWA

CITY           SKY/WX    TMP DP  RH WIND       PRES   REMARKS
ALGONA *       SUNNY     46  23  39 S23       30.07F
CLARION *      SUNNY     45  23  42 S16G24    30.09F
ESTHERVILLE    SUNNY     47  25  42 S23       30.03F
FORT DODGE *   SUNNY     48  19  32 S14G21    30.09F
MASON CITY     SUNNY     44  21  40 S17       30.11F
FOREST CITY *  SUNNY     43  23  45 S17G23    30.09F
IOWA FALLS *     N/A     45  19  36 S15       30.13F
$$

IAZ007>011-017>019-026>030-037>042-050>054-066-290000-
   NORTHEAST IOWA

CITY           SKY/WX    TMP DP  RH WIND       PRES   REMARKS
CEDAR RAPIDS   SUNNY     41  13  31 S13       30.19F
CHARLES CITY * SUNNY     43  19  39 S15G22    30.14F
CLINTON *      SUNNY     39  10  30 S10       30.26F WCI  32
DECORAH *      SUNNY     39  16  38 S7G14     30.16F WCI  34
DUBUQUE        SUNNY     39  11  31 S10       30.21F WCI  32
MONTICELLO *   SUNNY     41  12  30 SE12G18   30.21S
OELWEIN *      SUNNY     41  18  38 S15       30.18S
WATERLOO       SUNNY     44  13  28 S13       30.16F
$$

IAZ064-065-067-068-078-290000-
   EAST CENTRAL IOWA

CITY           SKY/WX    TMP DP  RH WIND       PRES   REMARKS
DAVENPORT      SUNNY     40  10  29 S10       30.24F WCI  33
IOWA CITY      SUNNY     42  12  29 SE7       30.23F
MT. PLEASANT * SUNNY     43  14  31 SE10G16   30.22F
MUSCATINE *    SUNNY     43  12  28 SE13      30.23F
QUAD CITIES    SUNNY     42   9  25 SE12      30.24F
$$

IAZ062-063-075>077-085>089-095>099-290000-
   SOUTHEAST IOWA

CITY           SKY/WX    TMP DP  RH WIND       PRES   REMARKS
BURLINGTON     SUNNY     43  12  28 S8        30.23F
FAIRFIELD *    SUNNY     43  14  31 SE12G17   30.20S
FORT MADISON * SUNNY     43  18  36 SE8       30.24S
KEOKUK *       SUNNY     43  16  33 S8G16     30.22F
OSKALOOSA *      N/A     45  14  29 S10G17    30.18F
CENTERVILLE *  SUNNY     45  21  39 SE12G18   30.18S
OTTUMWA        SUNNY     45  14  28 SE14      30.17F
WASHINGTON *   SUNNY     43  14  31 SE13      30.21S
$$

ABBREVIATIONS USED IN REMARKS
   TC - TEMPERATURES IN CELSIUS
  WCI - WIND CHILL INDEX
   HX - HEAT INDEX
  VSB - VISIBILITY
$$




USA.gov is the U.S. government's official web portal to all federal, state and local government web resources and services.